Weather History for Wenatchee, WA

Change the Weather History Date:

Wednesday, April 10, 2013

  Actual Average Record
Temperature  
Mean Temperature 48 °F 45 °F  
Max Temperature 61 °F 56 °F 77 °F (1968)
Min Temperature 35 °F 34 °F 28 °F (2008)
Degree Days  
Heating Degree Days 17 20  
Month to date heating degree days 175 210  
Since 1 July heating degree days 5817 6218  
Cooling Degree Days 0 0  
Month to date cooling degree days 0 0  
Year to date cooling degree days 0 0  
Growing Degree Days 2 (Base 50)    
Moisture  
Dew Point 35 °F    
Average Humidity 55    
Maximum Humidity 76    
Minimum Humidity 32    
Precipitation  
Precipitation 0.03 in 0.05 in 0.43 in (2001)
Month to date precipitation 0.55 0.49  
Year to date precipitation 3.31 5.53  
Snow  
Snow 0.00 in 0.10 in - ()
Month to date snowfall 0.0 1.1  
Since 1 July snowfall 48.2 52.8  
Snow Depth 0.00 in    
Sea Level Pressure  
Sea Level Pressure 29.99 in    
Wind  
Wind Speed 9 mph (NW)    
Max Wind Speed 28 mph    
Max Gust Speed 41 mph    
Visibility 10 miles    
Events Rain    
T = Trace of Precipitation, MM = Missing Value Source: NWS Daily Summary

Daily Weather History Graph

Daily Weather History Graph

Search for Another Location

Airport:

Trip Planner

Search our weather history database for the weather conditions in past years. The results will help you decide how hot, cold, wet, or windy it might be!

Date:

Astronomy

Apr. 10, 2013 Rise Set
Actual Time 6:21 AM PDT 7:43 PM PDT
Civil Twilight 5:49 AM PDT 8:15 PM PDT
Nautical Twilight 5:11 AM PDT 8:54 PM PDT
Astronomical Twilight 4:29 AM PDT 9:35 PM PDT
Moon 6:17 AM PDT (4/10) 8:29 PM PDT (4/10)
Length of Visible Light 14h 25m
Length of Day
13h 22m
New Moon, 0% of the Moon is Illuminated
Apr 10
New Moon
Apr 18
First Quarter
Apr 25
Full
May 2
Last Quarter
May 9
New

Hourly Weather History & Observations

Time (PDT) Temp. Windchill Dew Point Humidity Pressure Visibility Wind Dir Wind Speed Gust Speed Precip Events Conditions
12:55 AM 48.0 °F - 35.1 °F 61% 30.14 in 10.0 mi NNW 6.9 mph - N/A   Clear
1:55 AM 48.0 °F - 35.1 °F 61% 30.12 in 10.0 mi North 5.8 mph - N/A   Clear
2:55 AM 48.0 °F - 36.0 °F 63% 30.10 in 10.0 mi NW 6.9 mph - N/A   Clear
3:55 AM 45.0 °F - 36.0 °F 71% 30.08 in 10.0 mi Calm Calm - N/A   Partly Cloudy
4:55 AM 46.0 °F - 37.0 °F 71% 30.06 in 10.0 mi Calm Calm - N/A   Overcast
5:55 AM 45.0 °F - 37.0 °F 74% 30.03 in 10.0 mi Calm Calm - N/A   Mostly Cloudy
6:55 AM 44.1 °F 42.5 °F 37.0 °F 76% 30.01 in 10.0 mi East 3.5 mph - N/A   Mostly Cloudy
7:55 AM 46.0 °F 44.8 °F 37.0 °F 71% 29.98 in 10.0 mi East 3.5 mph - N/A   Overcast
8:55 AM 46.9 °F - 37.0 °F 68% 29.91 in 10.0 mi ESE 10.4 mph - N/A   Clear
10:55 AM 51.1 °F - 39.9 °F 66% 29.87 in 10.0 mi SSE 4.6 mph - 0.00 in Rain Light Rain
11:55 AM 53.1 °F - 42.1 °F 66% 29.86 in 10.0 mi Variable 4.6 mph - 0.00 in   Partly Cloudy
12:55 PM 60.1 °F - 39.9 °F 47% 29.84 in 10.0 mi WSW 13.8 mph - N/A   Clear
1:55 PM 57.9 °F - 39.9 °F 51% 29.83 in 10.0 mi NW 16.1 mph 20.7 mph N/A   Overcast
2:55 PM 61.0 °F - 37.0 °F 41% 29.85 in 10.0 mi NW 24.2 mph 29.9 mph N/A   Overcast
3:55 PM 59.0 °F - 32.0 °F 36% 29.88 in 10.0 mi WNW 24.2 mph 33.4 mph N/A   Clear
4:55 PM 60.1 °F - 30.0 °F 32% 29.90 in 10.0 mi WNW 27.6 mph 41.4 mph N/A   Clear
5:55 PM 59.0 °F - 30.9 °F 35% 29.94 in 10.0 mi NW 20.7 mph 33.4 mph N/A   Clear
6:55 PM 55.9 °F - 28.9 °F 36% 29.98 in 10.0 mi NW 16.1 mph 27.6 mph N/A   Clear
7:55 PM 52.0 °F - 28.0 °F 40% 30.03 in 10.0 mi NNW 13.8 mph - N/A   Clear
8:55 PM 50.0 °F - 30.0 °F 46% 30.04 in 10.0 mi NW 18.4 mph - N/A   Clear
9:55 PM 48.9 °F - 30.9 °F 50% 30.07 in 10.0 mi West 10.4 mph - N/A   Clear
10:55 PM 48.0 °F - 30.9 °F 52% 30.07 in 10.0 mi WNW 12.7 mph - N/A   Clear
11:55 PM 48.0 °F - 32.0 °F 54% 30.08 in 10.0 mi NW 17.3 mph - N/A   Clear